owner,sensor,date,latitude,longitude,vertical_datum,sea_water_temperature,qcFlag
Amerada Hess,ioos:station:wmo:42401:1,2020-04-01T00:08:00Z,27.5093,-90.5564,26.0,25.6,11111222
Amerada Hess,ioos:station:wmo:42401:1,2020-04-01T00:28:00Z,27.5093,-90.5564,26.0,25.5,11111222
Amerada Hess,ioos:station:wmo:42401:1,2020-04-01T00:48:00Z,27.5093,-90.5564,26.0,25.5,11111222
Amerada Hess,ioos:station:wmo:42401:1,2020-04-01T01:08:00Z,27.5093,-90.5564,26.0,25.6,11111222
Amerada Hess,ioos:station:wmo:42401:1,2020-04-01T01:28:00Z,27.5093,-90.5564,26.0,25.5,11111222
Amerada Hess,ioos:station:wmo:42401:1,2020-04-01T01:48:00Z,27.5093,-90.5564,26.0,25.5,11111222
Amerada Hess,ioos:station:wmo:42401:1,2020-04-01T02:08:00Z,27.5093,-90.5564,26.0,25.5,11111222
Amerada Hess,ioos:station:wmo:42401:1,2020-04-01T02:28:00Z,27.5093,-90.5564,26.0,25.5,11111222
Amerada Hess,ioos:station:wmo:42401:1,2020-04-01T02:48:00Z,27.5093,-90.5564,26.0,25.5,11111222
Amerada Hess,ioos:station:wmo:42401:1,2020-04-01T03:08:00Z,27.5093,-90.5564,26.0,25.5,11111222
Amerada Hess,ioos:station:wmo:42401:1,2020-04-01T03:28:00Z,27.5093,-90.5564,26.0,25.5,11111222
Amerada Hess,ioos:station:wmo:42401:1,2020-04-01T03:48:00Z,27.5093,-90.5564,26.0,25.5,11111222
Amerada Hess,ioos:station:wmo:42401:1,2020-04-01T04:08:00Z,27.5093,-90.5564,26.0,25.5,11111222
Amerada Hess,ioos:station:wmo:42401:1,2020-04-01T04:28:00Z,27.5093,-90.5564,26.0,25.5,11111222
Amerada Hess,ioos:station:wmo:42401:1,2020-04-01T04:48:00Z,27.5093,-90.5564,26.0,25.5,11111222
Amerada Hess,ioos:station:wmo:42401:1,2020-04-01T05:08:00Z,27.5093,-90.5564,26.0,25.6,11111222
Amerada Hess,ioos:station:wmo:42401:1,2020-04-01T05:27:00Z,27.5093,-90.5564,26.0,25.6,11111222
Amerada Hess,ioos:station:wmo:42401:1,2020-04-01T05:47:00Z,27.5093,-90.5564,26.0,25.6,11111222
Amerada Hess,ioos:station:wmo:42401:1,2020-04-01T06:07:00Z,27.5093,-90.5564,26.0,25.7,11111222
Amerada Hess,ioos:station:wmo:42401:1,2020-04-01T06:27:00Z,27.5093,-90.5564,26.0,25.8,11111222
Amerada Hess,ioos:station:wmo:42401:1,2020-04-01T06:47:00Z,27.5093,-90.5564,26.0,25.8,11111222
Amerada Hess,ioos:station:wmo:42401:1,2020-04-01T07:07:00Z,27.5093,-90.5564,26.0,25.8,11111222
Amerada Hess,ioos:station:wmo:42401:1,2020-04-01T07:27:00Z,27.5093,-90.5564,26.0,25.9,11111222
Amerada Hess,ioos:station:wmo:42401:1,2020-04-01T07:47:00Z,27.5093,-90.5564,26.0,25.9,11111222
Amerada Hess,ioos:station:wmo:42401:1,2020-04-01T08:07:00Z,27.5093,-90.5564,26.0,25.9,11111222
Amerada Hess,ioos:station:wmo:42401:1,2020-04-01T08:27:00Z,27.5093,-90.5564,26.0,26.0,11111222
Amerada Hess,ioos:station:wmo:42401:1,2020-04-01T08:47:00Z,27.5093,-90.5564,26.0,26.1,11111222
Amerada Hess,ioos:station:wmo:42401:1,2020-04-01T09:07:00Z,27.5093,-90.5564,26.0,26.2,11111222
Amerada Hess,ioos:station:wmo:42401:1,2020-04-01T09:26:00Z,27.5093,-90.5564,26.0,26.3,11111222
Amerada Hess,ioos:station:wmo:42401:1,2020-04-01T09:45:00Z,27.5093,-90.5564,26.0,26.4,11111222
Amerada Hess,ioos:station:wmo:42401:1,2020-04-01T10:05:00Z,27.5093,-90.5564,26.0,26.4,11111222
Amerada Hess,ioos:station:wmo:42401:1,2020-04-01T10:25:00Z,27.5093,-90.5564,26.0,26.5,11111222
Amerada Hess,ioos:station:wmo:42401:1,2020-04-01T10:45:00Z,27.5093,-90.5564,26.0,26.5,11111222
Amerada Hess,ioos:station:wmo:42401:1,2020-04-01T11:05:00Z,27.5093,-90.5564,26.0,26.6,11111222
Amerada Hess,ioos:station:wmo:42401:1,2020-04-01T11:25:00Z,27.5093,-90.5564,26.0,26.6,11111222
Amerada Hess,ioos:station:wmo:42401:1,2020-04-01T11:45:00Z,27.5093,-90.5564,26.0,26.6,11111222
Amerada Hess,ioos:station:wmo:42401:1,2020-04-01T12:05:00Z,27.5093,-90.5564,26.0,26.6,11111222
Amerada Hess,ioos:station:wmo:42401:1,2020-04-01T12:25:00Z,27.5093,-90.5564,26.0,26.6,11111222
Amerada Hess,ioos:station:wmo:42401:1,2020-04-01T12:45:00Z,27.5093,-90.5564,26.0,26.6,11111222
Amerada Hess,ioos:station:wmo:42401:1,2020-04-01T13:05:00Z,27.5093,-90.5564,26.0,26.7,11111222
Amerada Hess,ioos:station:wmo:42401:1,2020-04-01T13:25:00Z,27.5093,-90.5564,26.0,26.7,11111222
Amerada Hess,ioos:station:wmo:42401:1,2020-04-01T13:45:00Z,27.5093,-90.5564,26.0,26.7,11111222
Amerada Hess,ioos:station:wmo:42401:1,2020-04-01T14:05:00Z,27.5093,-90.5564,26.0,26.7,11111222
Amerada Hess,ioos:station:wmo:42401:1,2020-04-01T14:25:00Z,27.5093,-90.5564,26.0,26.7,11111222
Amerada Hess,ioos:station:wmo:42401:1,2020-04-01T14:45:00Z,27.5093,-90.5564,26.0,26.7,11111222
Amerada Hess,ioos:station:wmo:42401:1,2020-04-01T15:05:00Z,27.5093,-90.5564,26.0,26.7,11111222
Amerada Hess,ioos:station:wmo:42401:1,2020-04-01T15:25:00Z,27.5093,-90.5564,26.0,26.7,11111222
Amerada Hess,ioos:station:wmo:42401:1,2020-04-01T15:45:00Z,27.5093,-90.5564,26.0,26.7,11111222
Amerada Hess,ioos:station:wmo:42401:1,2020-04-01T16:04:00Z,27.5093,-90.5564,26.0,26.7,11111222
Amerada Hess,ioos:station:wmo:42401:1,2020-04-01T16:24:00Z,27.5093,-90.5564,26.0,26.7,11111222
Amerada Hess,ioos:station:wmo:42401:1,2020-04-01T16:44:00Z,27.5093,-90.5564,26.0,26.7,11111222
Amerada Hess,ioos:station:wmo:42401:1,2020-04-01T17:04:00Z,27.5093,-90.5564,26.0,26.7,11111222
Amerada Hess,ioos:station:wmo:42401:1,2020-04-01T17:24:00Z,27.5093,-90.5564,26.0,26.7,11111222
Amerada Hess,ioos:station:wmo:42401:1,2020-04-01T17:44:00Z,27.5093,-90.5564,26.0,26.7,11111222
Amerada Hess,ioos:station:wmo:42401:1,2020-04-01T18:04:00Z,27.5093,-90.5564,26.0,26.8,11111222
Amerada Hess,ioos:station:wmo:42401:1,2020-04-01T18:24:00Z,27.5093,-90.5564,26.0,26.8,11111222
Amerada Hess,ioos:station:wmo:42401:1,2020-04-01T18:44:00Z,27.5093,-90.5564,26.0,26.8,11111222
Amerada Hess,ioos:station:wmo:42401:1,2020-04-01T19:04:00Z,27.5093,-90.5564,26.0,26.8,11111222
Amerada Hess,ioos:station:wmo:42401:1,2020-04-01T19:24:00Z,27.5093,-90.5564,26.0,26.8,11111222
Amerada Hess,ioos:station:wmo:42401:1,2020-04-01T19:44:00Z,27.5093,-90.5564,26.0,26.8,11111222
Amerada Hess,ioos:station:wmo:42401:1,2020-04-01T20:04:00Z,27.5093,-90.5564,26.0,26.9,11111222
Amerada Hess,ioos:station:wmo:42401:1,2020-04-01T20:24:00Z,27.5093,-90.5564,26.0,26.9,11111222
Amerada Hess,ioos:station:wmo:42401:1,2020-04-01T20:44:00Z,27.5093,-90.5564,26.0,26.9,11111222
Amerada Hess,ioos:station:wmo:42401:1,2020-04-01T21:04:00Z,27.5093,-90.5564,26.0,27.0,11111222
Amerada Hess,ioos:station:wmo:42401:1,2020-04-01T21:24:00Z,27.5093,-90.5564,26.0,27.0,11111222
Amerada Hess,ioos:station:wmo:42401:1,2020-04-01T21:44:00Z,27.5093,-90.5564,26.0,27.0,11111222
Amerada Hess,ioos:station:wmo:42401:1,2020-04-01T22:04:00Z,27.5093,-90.5564,26.0,27.0,11111222
Amerada Hess,ioos:station:wmo:42401:1,2020-04-01T22:24:00Z,27.5093,-90.5564,26.0,27.0,11111222
Amerada Hess,ioos:station:wmo:42401:1,2020-04-01T22:44:00Z,27.5093,-90.5564,26.0,27.1,11111222
Amerada Hess,ioos:station:wmo:42401:1,2020-04-01T23:04:00Z,27.5093,-90.5564,26.0,27.1,11111222
Amerada Hess,ioos:station:wmo:42401:1,2020-04-01T23:24:00Z,27.5093,-90.5564,26.0,27.1,11111222
Amerada Hess,ioos:station:wmo:42401:1,2020-04-01T23:44:00Z,27.5093,-90.5564,26.0,27.1,11111222
Amerada Hess,ioos:station:wmo:42401:1,2020-04-02T00:04:00Z,27.5093,-90.5564,26.0,27.1,11111222
Amerada Hess,ioos:station:wmo:42401:1,2020-04-02T00:24:00Z,27.5093,-90.5564,26.0,27.1,11111222
Amerada Hess,ioos:station:wmo:42401:1,2020-04-02T00:44:00Z,27.5093,-90.5564,26.0,27.1,11111222
Amerada Hess,ioos:station:wmo:42401:1,2020-04-02T01:04:00Z,27.5093,-90.5564,26.0,27.1,11111222
Amerada Hess,ioos:station:wmo:42401:1,2020-04-02T01:24:00Z,27.5093,-90.5564,26.0,27.0,11111222
Amerada Hess,ioos:station:wmo:42401:1,2020-04-02T01:44:00Z,27.5093,-90.5564,26.0,27.1,11111222
Amerada Hess,ioos:station:wmo:42401:1,2020-04-02T02:04:00Z,27.5093,-90.5564,26.0,27.1,11111222
Amerada Hess,ioos:station:wmo:42401:1,2020-04-02T02:24:00Z,27.5093,-90.5564,26.0,27.1,11111222
Amerada Hess,ioos:station:wmo:42401:1,2020-04-02T02:44:00Z,27.5093,-90.5564,26.0,27.1,11111222
Amerada Hess,ioos:station:wmo:42401:1,2020-04-02T03:04:00Z,27.5093,-90.5564,26.0,27.1,11111222
Amerada Hess,ioos:station:wmo:42401:1,2020-04-02T03:24:00Z,27.5093,-90.5564,26.0,27.1,11111222
Amerada Hess,ioos:station:wmo:42401:1,2020-04-02T03:44:00Z,27.5093,-90.5564,26.0,27.1,11111222
Amerada Hess,ioos:station:wmo:42401:1,2020-04-02T04:04:00Z,27.5093,-90.5564,26.0,27.1,11111222
Amerada Hess,ioos:station:wmo:42401:1,2020-04-02T04:24:00Z,27.5093,-90.5564,26.0,27.1,11111222
Amerada Hess,ioos:station:wmo:42401:1,2020-04-02T04:44:00Z,27.5093,-90.5564,26.0,27.0,11111222
Amerada Hess,ioos:station:wmo:42401:1,2020-04-02T05:04:00Z,27.5093,-90.5564,26.0,27.0,11111222
Amerada Hess,ioos:station:wmo:42401:1,2020-04-02T05:24:00Z,27.5093,-90.5564,26.0,27.0,11111222
Amerada Hess,ioos:station:wmo:42401:1,2020-04-02T05:43:00Z,27.5093,-90.5564,26.0,27.0,11111222
Amerada Hess,ioos:station:wmo:42401:1,2020-04-02T06:03:00Z,27.5093,-90.5564,26.0,27.0,11111222
Amerada Hess,ioos:station:wmo:42401:1,2020-04-02T06:22:00Z,27.5093,-90.5564,26.0,27.0,11111222
Amerada Hess,ioos:station:wmo:42401:1,2020-04-02T06:41:00Z,27.5093,-90.5564,26.0,27.0,11111222
Amerada Hess,ioos:station:wmo:42401:1,2020-04-02T07:01:00Z,27.5093,-90.5564,26.0,27.0,11111222
Amerada Hess,ioos:station:wmo:42401:1,2020-04-02T07:21:00Z,27.5093,-90.5564,26.0,27.0,11111222
Amerada Hess,ioos:station:wmo:42401:1,2020-04-02T07:41:00Z,27.5093,-90.5564,26.0,27.0,11111222
Amerada Hess,ioos:station:wmo:42401:1,2020-04-02T08:01:00Z,27.5093,-90.5564,26.0,27.0,11111222
Amerada Hess,ioos:station:wmo:42401:1,2020-04-02T08:21:00Z,27.5093,-90.5564,26.0,27.0,11111222
Amerada Hess,ioos:station:wmo:42401:1,2020-04-02T08:41:00Z,27.5093,-90.5564,26.0,27.0,11111222
Amerada Hess,ioos:station:wmo:42401:1,2020-04-02T09:01:00Z,27.5093,-90.5564,26.0,27.0,11111222
Amerada Hess,ioos:station:wmo:42401:1,2020-04-02T09:21:00Z,27.5093,-90.5564,26.0,27.0,11111222
Amerada Hess,ioos:station:wmo:42401:1,2020-04-02T09:41:00Z,27.5093,-90.5564,26.0,27.0,11111222
Amerada Hess,ioos:station:wmo:42401:1,2020-04-02T10:01:00Z,27.5093,-90.5564,26.0,27.0,11111222
Amerada Hess,ioos:station:wmo:42401:1,2020-04-02T10:21:00Z,27.5093,-90.5564,26.0,27.0,11111222
Amerada Hess,ioos:station:wmo:42401:1,2020-04-02T10:41:00Z,27.5093,-90.5564,26.0,27.0,11111222
Amerada Hess,ioos:station:wmo:42401:1,2020-04-02T11:01:00Z,27.5093,-90.5564,26.0,27.0,11111222
Amerada Hess,ioos:station:wmo:42401:1,2020-04-02T11:20:00Z,27.5093,-90.5564,26.0,27.0,11111222
Amerada Hess,ioos:station:wmo:42401:1,2020-04-02T11:40:00Z,27.5093,-90.5564,26.0,27.0,11111222
Amerada Hess,ioos:station:wmo:42401:1,2020-04-02T12:00:00Z,27.5093,-90.5564,26.0,27.0,11111222
Amerada Hess,ioos:station:wmo:42401:1,2020-04-02T12:20:00Z,27.5093,-90.5564,26.0,27.0,11111222
Amerada Hess,ioos:station:wmo:42401:1,2020-04-02T12:40:00Z,27.5093,-90.5564,26.0,27.0,11111222
Amerada Hess,ioos:station:wmo:42401:1,2020-04-02T13:00:00Z,27.5093,-90.5564,26.0,27.0,11111222
Amerada Hess,ioos:station:wmo:42401:1,2020-04-02T13:19:00Z,27.5093,-90.5564,26.0,27.0,11111222
Amerada Hess,ioos:station:wmo:42401:1,2020-04-02T13:38:00Z,27.5093,-90.5564,26.0,27.0,11111222
Amerada Hess,ioos:station:wmo:42401:1,2020-04-02T13:58:00Z,27.5093,-90.5564,26.0,27.0,11111222
Amerada Hess,ioos:station:wmo:42401:1,2020-04-02T14:18:00Z,27.5093,-90.5564,26.0,27.0,11111222
Amerada Hess,ioos:station:wmo:42401:1,2020-04-02T14:38:00Z,27.5093,-90.5564,26.0,27.0,11111222
Amerada Hess,ioos:station:wmo:42401:1,2020-04-02T14:57:00Z,27.5093,-90.5564,26.0,27.0,11111222
Amerada Hess,ioos:station:wmo:42401:1,2020-04-02T15:17:00Z,27.5093,-90.5564,26.0,27.0,11111222
Amerada Hess,ioos:station:wmo:42401:1,2020-04-02T15:37:00Z,27.5093,-90.5564,26.0,27.0,11111222
Amerada Hess,ioos:station:wmo:42401:1,2020-04-02T15:57:00Z,27.5093,-90.5564,26.0,27.0,11111222
Amerada Hess,ioos:station:wmo:42401:1,2020-04-02T16:17:00Z,27.5093,-90.5564,26.0,27.0,11111222
Amerada Hess,ioos:station:wmo:42401:1,2020-04-02T16:37:00Z,27.5093,-90.5564,26.0,27.0,11111222
Amerada Hess,ioos:station:wmo:42401:1,2020-04-02T16:57:00Z,27.5093,-90.5564,26.0,27.0,11111222
Amerada Hess,ioos:station:wmo:42401:1,2020-04-02T17:17:00Z,27.5093,-90.5564,26.0,27.1,11111222
Amerada Hess,ioos:station:wmo:42401:1,2020-04-02T17:37:00Z,27.5093,-90.5564,26.0,27.1,11111222
Amerada Hess,ioos:station:wmo:42401:1,2020-04-02T17:57:00Z,27.5093,-90.5564,26.0,27.1,11111222
Amerada Hess,ioos:station:wmo:42401:1,2020-04-02T18:17:00Z,27.5093,-90.5564,26.0,27.1,11111222
Amerada Hess,ioos:station:wmo:42401:1,2020-04-02T18:37:00Z,27.5093,-90.5564,26.0,27.1,11111222
Amerada Hess,ioos:station:wmo:42401:1,2020-04-02T18:57:00Z,27.5093,-90.5564,26.0,27.1,11111222
Amerada Hess,ioos:station:wmo:42401:1,2020-04-02T19:17:00Z,27.5093,-90.5564,26.0,27.1,11111222
Amerada Hess,ioos:station:wmo:42401:1,2020-04-02T19:37:00Z,27.5093,-90.5564,26.0,27.1,11111222
Amerada Hess,ioos:station:wmo:42401:1,2020-04-02T19:57:00Z,27.5093,-90.5564,26.0,27.1,11111222
Amerada Hess,ioos:station:wmo:42401:1,2020-04-02T20:17:00Z,27.5093,-90.5564,26.0,27.1,11111222
Amerada Hess,ioos:station:wmo:42401:1,2020-04-02T20:37:00Z,27.5093,-90.5564,26.0,27.1,11111222
Amerada Hess,ioos:station:wmo:42401:1,2020-04-02T20:57:00Z,27.5093,-90.5564,26.0,27.1,11111222
Amerada Hess,ioos:station:wmo:42401:1,2020-04-02T21:17:00Z,27.5093,-90.5564,26.0,27.1,11111222
Amerada Hess,ioos:station:wmo:42401:1,2020-04-02T21:37:00Z,27.5093,-90.5564,26.0,27.1,11111222
Amerada Hess,ioos:station:wmo:42401:1,2020-04-02T21:57:00Z,27.5093,-90.5564,26.0,27.1,11111222
Amerada Hess,ioos:station:wmo:42401:1,2020-04-02T22:17:00Z,27.5093,-90.5564,26.0,27.1,11111222
Amerada Hess,ioos:station:wmo:42401:1,2020-04-02T22:37:00Z,27.5093,-90.5564,26.0,27.1,11111222
Amerada Hess,ioos:station:wmo:42401:1,2020-04-02T22:57:00Z,27.5093,-90.5564,26.0,27.1,11111222
Amerada Hess,ioos:station:wmo:42401:1,2020-04-02T23:17:00Z,27.5093,-90.5564,26.0,27.1,11111222
Amerada Hess,ioos:station:wmo:42401:1,2020-04-02T23:37:00Z,27.5093,-90.5564,26.0,27.2,11111222
Amerada Hess,ioos:station:wmo:42401:1,2020-04-02T23:57:00Z,27.5093,-90.5564,26.0,27.1,11111222
Amerada Hess,ioos:station:wmo:42401:1,2020-04-03T00:17:00Z,27.5093,-90.5564,26.0,27.2,11111222
Amerada Hess,ioos:station:wmo:42401:1,2020-04-03T00:37:00Z,27.5093,-90.5564,26.0,27.2,11111222
Amerada Hess,ioos:station:wmo:42401:1,2020-04-03T00:57:00Z,27.5093,-90.5564,26.0,27.2,11111222
Amerada Hess,ioos:station:wmo:42401:1,2020-04-03T01:17:00Z,27.5093,-90.5564,26.0,27.2,11111222
Amerada Hess,ioos:station:wmo:42401:1,2020-04-03T01:37:00Z,27.5093,-90.5564,26.0,27.2,11111222
Amerada Hess,ioos:station:wmo:42401:1,2020-04-03T01:57:00Z,27.5093,-90.5564,26.0,27.2,11111222
Amerada Hess,ioos:station:wmo:42401:1,2020-04-03T02:17:00Z,27.5093,-90.5564,26.0,27.2,11111222
Amerada Hess,ioos:station:wmo:42401:1,2020-04-03T02:37:00Z,27.5093,-90.5564,26.0,27.2,11111222
Amerada Hess,ioos:station:wmo:42401:1,2020-04-03T02:57:00Z,27.5093,-90.5564,26.0,27.2,11111222
Amerada Hess,ioos:station:wmo:42401:1,2020-04-03T03:17:00Z,27.5093,-90.5564,26.0,27.2,11111222
Amerada Hess,ioos:station:wmo:42401:1,2020-04-03T03:37:00Z,27.5093,-90.5564,26.0,27.2,11111222
Amerada Hess,ioos:station:wmo:42401:1,2020-04-03T03:57:00Z,27.5093,-90.5564,26.0,27.2,11111222
Amerada Hess,ioos:station:wmo:42401:1,2020-04-03T04:17:00Z,27.5093,-90.5564,26.0,27.2,11111222
Amerada Hess,ioos:station:wmo:42401:1,2020-04-03T04:37:00Z,27.5093,-90.5564,26.0,27.2,11111222
Amerada Hess,ioos:station:wmo:42401:1,2020-04-03T04:57:00Z,27.5093,-90.5564,26.0,27.2,11111222
Amerada Hess,ioos:station:wmo:42401:1,2020-04-03T05:17:00Z,27.5093,-90.5564,26.0,27.2,11111222
Amerada Hess,ioos:station:wmo:42401:1,2020-04-03T05:37:00Z,27.5093,-90.5564,26.0,27.2,11111222
Amerada Hess,ioos:station:wmo:42401:1,2020-04-03T05:57:00Z,27.5093,-90.5564,26.0,27.2,11111222
Amerada Hess,ioos:station:wmo:42401:1,2020-04-03T06:17:00Z,27.5093,-90.5564,26.0,27.2,11111222
Amerada Hess,ioos:station:wmo:42401:1,2020-04-03T06:37:00Z,27.5093,-90.5564,26.0,27.1,11111222
Amerada Hess,ioos:station:wmo:42401:1,2020-04-03T06:57:00Z,27.5093,-90.5564,26.0,27.2,11111222
Amerada Hess,ioos:station:wmo:42401:1,2020-04-03T07:17:00Z,27.5093,-90.5564,26.0,27.2,11111222
Amerada Hess,ioos:station:wmo:42401:1,2020-04-03T07:37:00Z,27.5093,-90.5564,26.0,27.2,11111222
Amerada Hess,ioos:station:wmo:42401:1,2020-04-03T07:57:00Z,27.5093,-90.5564,26.0,27.1,11111222
Amerada Hess,ioos:station:wmo:42401:1,2020-04-03T08:17:00Z,27.5093,-90.5564,26.0,27.1,11111222
Amerada Hess,ioos:station:wmo:42401:1,2020-04-03T08:37:00Z,27.5093,-90.5564,26.0,27.2,11111222
Amerada Hess,ioos:station:wmo:42401:1,2020-04-03T08:57:00Z,27.5093,-90.5564,26.0,27.1,11111222
Amerada Hess,ioos:station:wmo:42401:1,2020-04-03T09:17:00Z,27.5093,-90.5564,26.0,27.1,11111222
Amerada Hess,ioos:station:wmo:42401:1,2020-04-03T09:36:00Z,27.5093,-90.5564,26.0,27.1,11111222
Amerada Hess,ioos:station:wmo:42401:1,2020-04-03T09:56:00Z,27.5093,-90.5564,26.0,27.2,11111222
Amerada Hess,ioos:station:wmo:42401:1,2020-04-03T10:15:00Z,27.5093,-90.5564,26.0,27.2,11111222
Amerada Hess,ioos:station:wmo:42401:1,2020-04-03T10:34:00Z,27.5093,-90.5564,26.0,27.2,11111222
Amerada Hess,ioos:station:wmo:42401:1,2020-04-03T10:54:00Z,27.5093,-90.5564,26.0,27.2,11111222
Amerada Hess,ioos:station:wmo:42401:1,2020-04-03T11:14:00Z,27.5093,-90.5564,26.0,27.1,11111222
Amerada Hess,ioos:station:wmo:42401:1,2020-04-03T11:34:00Z,27.5093,-90.5564,26.0,27.2,11111222
Amerada Hess,ioos:station:wmo:42401:1,2020-04-03T11:54:00Z,27.5093,-90.5564,26.0,27.1,11111222
Amerada Hess,ioos:station:wmo:42401:1,2020-04-03T12:14:00Z,27.5093,-90.5564,26.0,27.1,11111222
Amerada Hess,ioos:station:wmo:42401:1,2020-04-03T12:34:00Z,27.5093,-90.5564,26.0,27.2,11111222
Amerada Hess,ioos:station:wmo:42401:1,2020-04-03T12:54:00Z,27.5093,-90.5564,26.0,27.1,11111222
Amerada Hess,ioos:station:wmo:42401:1,2020-04-03T13:13:00Z,27.5093,-90.5564,26.0,27.2,11111222
Amerada Hess,ioos:station:wmo:42401:1,2020-04-03T13:33:00Z,27.5093,-90.5564,26.0,27.2,11111222
Amerada Hess,ioos:station:wmo:42401:1,2020-04-03T13:53:00Z,27.5093,-90.5564,26.0,27.2,11111222
Amerada Hess,ioos:station:wmo:42401:1,2020-04-03T14:12:00Z,27.5093,-90.5564,26.0,27.2,11111222
Amerada Hess,ioos:station:wmo:42401:1,2020-04-03T14:32:00Z,27.5093,-90.5564,26.0,27.1,11111222
Amerada Hess,ioos:station:wmo:42401:1,2020-04-03T14:52:00Z,27.5093,-90.5564,26.0,27.2,11111222
Amerada Hess,ioos:station:wmo:42401:1,2020-04-03T15:12:00Z,27.5093,-90.5564,26.0,27.2,11111222
Amerada Hess,ioos:station:wmo:42401:1,2020-04-03T15:32:00Z,27.5093,-90.5564,26.0,27.2,11111222
Amerada Hess,ioos:station:wmo:42401:1,2020-04-03T15:52:00Z,27.5093,-90.5564,26.0,27.2,11111222
Amerada Hess,ioos:station:wmo:42401:1,2020-04-03T16:11:00Z,27.5093,-90.5564,26.0,27.2,11111222
Amerada Hess,ioos:station:wmo:42401:1,2020-04-03T16:30:00Z,27.5093,-90.5564,26.0,27.2,11111222
Amerada Hess,ioos:station:wmo:42401:1,2020-04-03T16:50:00Z,27.5093,-90.5564,26.0,27.2,11111222
Amerada Hess,ioos:station:wmo:42401:1,2020-04-03T17:10:00Z,27.5093,-90.5564,26.0,27.2,11111222
Amerada Hess,ioos:station:wmo:42401:1,2020-04-03T17:30:00Z,27.5093,-90.5564,26.0,27.2,11111222
Amerada Hess,ioos:station:wmo:42401:1,2020-04-03T17:50:00Z,27.5093,-90.5564,26.0,27.2,11111222
Amerada Hess,ioos:station:wmo:42401:1,2020-04-03T18:10:00Z,27.5093,-90.5564,26.0,27.2,11111222
Amerada Hess,ioos:station:wmo:42401:1,2020-04-03T18:30:00Z,27.5093,-90.5564,26.0,27.2,11111222
Amerada Hess,ioos:station:wmo:42401:1,2020-04-03T18:50:00Z,27.5093,-90.5564,26.0,27.2,11111222
Amerada Hess,ioos:station:wmo:42401:1,2020-04-03T19:10:00Z,27.5093,-90.5564,26.0,27.2,11111222
Amerada Hess,ioos:station:wmo:42401:1,2020-04-03T19:30:00Z,27.5093,-90.5564,26.0,27.2,11111222
Amerada Hess,ioos:station:wmo:42401:1,2020-04-03T19:50:00Z,27.5093,-90.5564,26.0,27.1,11111222
Amerada Hess,ioos:station:wmo:42401:1,2020-04-03T20:10:00Z,27.5093,-90.5564,26.0,27.2,11111222
Amerada Hess,ioos:station:wmo:42401:1,2020-04-03T20:30:00Z,27.5093,-90.5564,26.0,27.1,11111222
Amerada Hess,ioos:station:wmo:42401:1,2020-04-03T20:50:00Z,27.5093,-90.5564,26.0,27.1,11111222
Amerada Hess,ioos:station:wmo:42401:1,2020-04-03T21:10:00Z,27.5093,-90.5564,26.0,27.1,11111222
Amerada Hess,ioos:station:wmo:42401:1,2020-04-03T21:30:00Z,27.5093,-90.5564,26.0,27.1,11111222
Amerada Hess,ioos:station:wmo:42401:1,2020-04-03T21:50:00Z,27.5093,-90.5564,26.0,27.1,11111222
Amerada Hess,ioos:station:wmo:42401:1,2020-04-03T22:10:00Z,27.5093,-90.5564,26.0,27.1,11111222
Amerada Hess,ioos:station:wmo:42401:1,2020-04-03T22:30:00Z,27.5093,-90.5564,26.0,27.1,11111222
Amerada Hess,ioos:station:wmo:42401:1,2020-04-03T22:50:00Z,27.5093,-90.5564,26.0,27.1,11111222
Amerada Hess,ioos:station:wmo:42401:1,2020-04-03T23:10:00Z,27.5093,-90.5564,26.0,27.1,11111222
Amerada Hess,ioos:station:wmo:42401:1,2020-04-03T23:30:00Z,27.5093,-90.5564,26.0,27.1,11111222
Amerada Hess,ioos:station:wmo:42401:1,2020-04-03T23:50:00Z,27.5093,-90.5564,26.0,27.1,11111222
Amerada Hess,ioos:station:wmo:42401:1,2020-04-04T00:10:00Z,27.5093,-90.5564,26.0,27.1,11111222
Amerada Hess,ioos:station:wmo:42401:1,2020-04-04T00:30:00Z,27.5093,-90.5564,26.0,27.1,11111222
Amerada Hess,ioos:station:wmo:42401:1,2020-04-04T00:50:00Z,27.5093,-90.5564,26.0,27.1,11111222
Amerada Hess,ioos:station:wmo:42401:1,2020-04-04T01:10:00Z,27.5093,-90.5564,26.0,27.1,11111222
Amerada Hess,ioos:station:wmo:42401:1,2020-04-04T01:30:00Z,27.5093,-90.5564,26.0,27.1,11111222
Amerada Hess,ioos:station:wmo:42401:1,2020-04-04T01:50:00Z,27.5093,-90.5564,26.0,27.1,11111222
Amerada Hess,ioos:station:wmo:42401:1,2020-04-04T02:10:00Z,27.5093,-90.5564,26.0,27.1,11111222
Amerada Hess,ioos:station:wmo:42401:1,2020-04-04T02:30:00Z,27.5093,-90.5564,26.0,27.1,11111222
Amerada Hess,ioos:station:wmo:42401:1,2020-04-04T02:50:00Z,27.5093,-90.5564,26.0,27.1,11111222
Amerada Hess,ioos:station:wmo:42401:1,2020-04-04T03:10:00Z,27.5093,-90.5564,26.0,27.1,11111222
Amerada Hess,ioos:station:wmo:42401:1,2020-04-04T03:30:00Z,27.5093,-90.5564,26.0,27.1,11111222
Amerada Hess,ioos:station:wmo:42401:1,2020-04-04T03:50:00Z,27.5093,-90.5564,26.0,27.1,11111222
Amerada Hess,ioos:station:wmo:42401:1,2020-04-04T04:10:00Z,27.5093,-90.5564,26.0,27.1,11111222
Amerada Hess,ioos:station:wmo:42401:1,2020-04-04T04:30:00Z,27.5093,-90.5564,26.0,27.1,11111222
Amerada Hess,ioos:station:wmo:42401:1,2020-04-04T04:50:00Z,27.5093,-90.5564,26.0,27.1,11111222
Amerada Hess,ioos:station:wmo:42401:1,2020-04-04T05:10:00Z,27.5093,-90.5564,26.0,27.1,11111222
Amerada Hess,ioos:station:wmo:42401:1,2020-04-04T05:30:00Z,27.5093,-90.5564,26.0,27.1,11111222
Amerada Hess,ioos:station:wmo:42401:1,2020-04-04T05:50:00Z,27.5093,-90.5564,26.0,27.1,11111222
Amerada Hess,ioos:station:wmo:42401:1,2020-04-04T06:10:00Z,27.5093,-90.5564,26.0,27.1,11111222
Amerada Hess,ioos:station:wmo:42401:1,2020-04-04T06:30:00Z,27.5093,-90.5564,26.0,27.1,11111222
Amerada Hess,ioos:station:wmo:42401:1,2020-04-04T06:50:00Z,27.5093,-90.5564,26.0,27.1,11111222
Amerada Hess,ioos:station:wmo:42401:1,2020-04-04T07:10:00Z,27.5093,-90.5564,26.0,27.1,11111222
Amerada Hess,ioos:station:wmo:42401:1,2020-04-04T07:30:00Z,27.5093,-90.5564,26.0,27.1,11111222
Amerada Hess,ioos:station:wmo:42401:1,2020-04-04T07:50:00Z,27.5093,-90.5564,26.0,27.1,11111222
Amerada Hess,ioos:station:wmo:42401:1,2020-04-04T08:10:00Z,27.5093,-90.5564,26.0,27.1,11111222
Amerada Hess,ioos:station:wmo:42401:1,2020-04-04T08:30:00Z,27.5093,-90.5564,26.0,27.1,11111222
Amerada Hess,ioos:station:wmo:42401:1,2020-04-04T08:50:00Z,27.5093,-90.5564,26.0,27.1,11111222
Amerada Hess,ioos:station:wmo:42401:1,2020-04-04T09:10:00Z,27.5093,-90.5564,26.0,27.1,11111222
Amerada Hess,ioos:station:wmo:42401:1,2020-04-04T09:30:00Z,27.5093,-90.5564,26.0,27.1,11111222
Amerada Hess,ioos:station:wmo:42401:1,2020-04-04T09:50:00Z,27.5093,-90.5564,26.0,27.1,11111222
Amerada Hess,ioos:station:wmo:42401:1,2020-04-04T10:10:00Z,27.5093,-90.5564,26.0,27.1,11111222
Amerada Hess,ioos:station:wmo:42401:1,2020-04-04T10:30:00Z,27.5093,-90.5564,26.0,27.1,11111222